Time,TemperatureF,DewpointF,PressureIn,WindDirection,WindDirectionDegrees,WindSpeedMPH,WindSpeedGustMPH,Humidity,HourlyPrecipIn,Conditions,Clouds,dailyrainin,SoftwareType,DateUTC
2013-01-31 00:03:00,50.0,50.0,-100.00,East,100,2.0,6.0,99,0.00,,,-99.99,,2013-01-31 05:03:00,
2013-01-31 00:11:00,48.0,48.0,-100.00,ENE,65,1.0,4.0,99,0.00,,,-99.99,,2013-01-31 05:11:00,
2013-01-31 00:22:00,48.0,48.0,-100.00,East,100,2.0,6.0,99,0.00,,,-99.99,,2013-01-31 05:22:00,
2013-01-31 00:32:00,48.0,48.0,-100.00,East,100,2.0,6.0,99,0.00,,,-99.99,,2013-01-31 05:32:00,
2013-01-31 00:42:00,51.0,51.0,-100.00,ESE,115,3.0,7.0,99,0.01,,,-99.99,,2013-01-31 05:42:00,
2013-01-31 00:52:00,51.0,51.0,-100.00,ESE,115,3.0,7.0,99,0.01,,,-99.99,,2013-01-31 05:52:00,
2013-01-31 01:01:00,51.0,51.0,-100.00,ESE,115,3.0,7.0,99,0.01,,,-99.99,,2013-01-31 06:01:00,
2013-01-31 01:10:00,51.0,51.0,-100.00,ESE,115,3.0,7.0,99,0.01,,,-99.99,,2013-01-31 06:10:00,
2013-01-31 09:03:00,56.0,56.0,-100.00,ESE,110,4.0,11.0,99,0.00,,,-99.99,,2013-01-31 14:03:00,
2013-01-31 09:11:00,53.0,51.0,-100.00,South,180,13.0,26.0,93,0.01,,,-99.99,,2013-01-31 14:11:00,
2013-01-31 09:22:00,50.0,47.0,-100.00,SW,230,6.0,16.0,87,0.00,,,-99.99,,2013-01-31 14:22:00,
2013-01-31 09:32:00,49.0,44.0,-100.00,SSE,165,4.0,26.0,84,0.00,,,-99.99,,2013-01-31 14:32:00,
2013-01-31 09:42:00,48.0,43.0,-100.00,South,185,6.0,21.0,83,0.00,,,-99.99,,2013-01-31 14:42:00,
2013-01-31 09:52:00,47.0,41.0,-100.00,SSW,205,8.0,16.0,78,0.00,,,-99.99,,2013-01-31 14:52:00,
2013-01-31 10:03:00,47.0,40.0,-100.00,South,175,5.0,21.0,78,0.00,,,-99.99,,2013-01-31 15:03:00,
2013-01-31 10:12:00,45.0,41.0,-100.00,SSE,165,6.0,16.0,84,0.11,,,-99.99,,2013-01-31 15:12:00,
2013-01-31 10:22:00,44.0,41.0,-100.00,South,185,4.0,14.0,87,0.01,,,-99.99,,2013-01-31 15:22:00,
2013-01-31 10:32:00,45.0,39.0,-100.00,South,180,7.0,17.0,81,0.00,,,-99.99,,2013-01-31 15:32:00,
2013-01-31 10:42:00,45.0,38.0,-100.00,West,265,6.0,17.0,76,0.00,,,-99.99,,2013-01-31 15:42:00,
2013-01-31 10:51:00,45.0,37.0,-100.00,WSW,255,7.0,22.0,72,0.00,,,-99.99,,2013-01-31 15:51:00,
2013-01-31 11:03:00,46.0,36.0,-100.00,West,260,6.0,21.0,67,0.00,,,-99.99,,2013-01-31 16:03:00,
2013-01-31 11:12:00,47.0,37.0,-100.00,SW,215,3.0,19.0,66,0.00,,,-99.99,,2013-01-31 16:12:00,
2013-01-31 11:22:00,47.0,34.0,-100.00,East,80,6.0,24.0,61,0.00,,,-99.99,,2013-01-31 16:22:00,
2013-01-31 11:33:00,46.0,35.0,-100.00,SSW,200,4.0,18.0,63,0.00,,,-99.99,,2013-01-31 16:33:00,
2013-01-31 11:42:00,46.0,33.0,-100.00,SSW,205,7.0,19.0,60,0.00,,,-99.99,,2013-01-31 16:42:00,
2013-01-31 11:52:00,45.0,30.0,-100.00,WSW,245,10.0,19.0,55,0.00,,,-99.99,,2013-01-31 16:52:00,
2013-01-31 12:03:00,44.0,30.0,-100.00,South,175,4.0,17.0,57,0.00,,,-99.99,,2013-01-31 17:03:00,
2013-01-31 12:12:00,44.0,27.0,-100.00,WSW,245,11.0,29.0,51,0.00,,,-99.99,,2013-01-31 17:12:00,
2013-01-31 12:23:00,44.0,28.0,-100.00,West,260,8.0,23.0,53,0.00,,,-99.99,,2013-01-31 17:23:00,
2013-01-31 12:32:00,44.0,28.0,-100.00,SW,225,6.0,16.0,52,0.00,,,-99.99,,2013-01-31 17:32:00,
2013-01-31 12:43:00,44.0,28.0,-100.00,SSW,210,7.0,19.0,52,0.00,,,-99.99,,2013-01-31 17:43:00,
2013-01-31 12:53:00,43.0,24.0,-100.00,WSW,250,7.0,22.0,46,0.00,,,-99.99,,2013-01-31 17:53:00,
2013-01-31 13:03:00,42.0,23.0,-100.00,SSW,205,10.0,22.0,45,0.00,,,-99.99,,2013-01-31 18:03:00,
2013-01-31 13:12:00,43.0,23.0,-100.00,West,270,9.0,24.0,44,0.00,,,-99.99,,2013-01-31 18:12:00,
2013-01-31 13:22:00,43.0,23.0,-100.00,SSW,195,9.0,20.0,44,0.00,,,-99.99,,2013-01-31 18:22:00,
2013-01-31 13:32:00,43.0,22.0,-100.00,SW,215,7.0,17.0,43,0.00,,,-99.99,,2013-01-31 18:32:00,
2013-01-31 13:43:00,42.0,22.0,-100.00,SW,230,7.0,28.0,44,0.00,,,-99.99,,2013-01-31 18:43:00,
2013-01-31 13:52:00,43.0,22.0,-100.00,SSW,205,10.0,20.0,43,0.00,,,-99.99,,2013-01-31 18:52:00,
2013-01-31 14:03:00,42.0,21.0,-100.00,SSW,195,9.0,22.0,43,0.00,,,-99.99,,2013-01-31 19:03:00,
2013-01-31 14:12:00,42.0,21.0,-100.00,WSW,245,6.0,19.0,43,0.00,,,-99.99,,2013-01-31 19:12:00,
2013-01-31 14:22:00,41.0,20.0,-100.00,WSW,240,7.0,24.0,42,0.00,,,-99.99,,2013-01-31 19:22:00,
2013-01-31 14:33:00,40.0,18.0,-100.00,SSW,205,12.0,29.0,40,0.00,,,-99.99,,2013-01-31 19:33:00,
2013-01-31 14:42:00,39.0,20.0,-100.00,SW,235,5.0,17.0,44,0.00,,,-99.99,,2013-01-31 19:42:00,
2013-01-31 14:52:00,39.0,19.0,-100.00,SSW,205,6.0,17.0,43,0.00,,,-99.99,,2013-01-31 19:52:00,
2013-01-31 15:02:00,40.0,18.0,-100.00,WSW,255,6.0,14.0,40,0.00,,,-99.99,,2013-01-31 20:02:00,
2013-01-31 15:11:00,39.0,18.0,-100.00,WSW,240,7.0,19.0,41,0.00,,,-99.99,,2013-01-31 20:11:00,
2013-01-31 15:22:00,40.0,18.0,-100.00,SW,215,6.0,14.0,40,0.00,,,-99.99,,2013-01-31 20:22:00,
2013-01-31 15:32:00,40.0,18.0,-100.00,SE,145,7.0,15.0,40,0.00,,,-99.99,,2013-01-31 20:32:00,
2013-01-31 15:42:00,39.0,16.0,-100.00,SSW,200,10.0,27.0,38,0.00,,,-99.99,,2013-01-31 20:42:00,
2013-01-31 15:52:00,38.0,15.0,-100.00,SW,215,11.0,27.0,38,0.00,,,-99.99,,2013-01-31 20:52:00,
2013-01-31 16:02:00,37.0,14.0,-100.00,SW,215,7.0,26.0,37,0.00,,,-99.99,,2013-01-31 21:02:00,
2013-01-31 16:12:00,37.0,15.0,-100.00,SW,215,9.0,27.0,39,0.00,,,-99.99,,2013-01-31 21:12:00,
2013-01-31 16:22:00,37.0,16.0,-100.00,WSW,240,2.0,18.0,41,0.00,,,-99.99,,2013-01-31 21:22:00,
2013-01-31 16:32:00,37.0,15.0,-100.00,SSW,195,6.0,19.0,41,0.00,,,-99.99,,2013-01-31 21:32:00,
2013-01-31 16:42:00,37.0,14.0,-100.00,SSW,210,9.0,21.0,38,0.00,,,-99.99,,2013-01-31 21:42:00,
2013-01-31 16:52:00,37.0,15.0,-100.00,WSW,245,6.0,17.0,40,0.00,,,-99.99,,2013-01-31 21:52:00,
2013-01-31 17:03:00,36.0,15.0,-100.00,SW,230,4.0,22.0,40,0.00,,,-99.99,,2013-01-31 22:03:00,
2013-01-31 17:11:00,36.0,15.0,-100.00,SSE,165,6.0,22.0,40,0.00,,,-99.99,,2013-01-31 22:11:00,
2013-01-31 17:22:00,36.0,15.0,-100.00,SSW,205,7.0,16.0,40,0.00,,,-99.99,,2013-01-31 22:22:00,
2013-01-31 17:33:00,36.0,14.0,-100.00,SSW,210,7.0,16.0,39,0.00,,,-99.99,,2013-01-31 22:33:00,
2013-01-31 17:42:00,36.0,14.0,-100.00,SE,145,6.0,19.0,39,0.00,,,-99.99,,2013-01-31 22:42:00,
2013-01-31 17:51:00,36.0,13.0,-100.00,SW,230,6.0,17.0,38,0.00,,,-99.99,,2013-01-31 22:51:00,
2013-01-31 18:03:00,36.0,12.0,-100.00,SW,215,4.0,21.0,37,0.00,,,-99.99,,2013-01-31 23:03:00,
2013-01-31 18:12:00,35.0,12.0,-100.00,South,190,9.0,19.0,37,0.00,,,-99.99,,2013-01-31 23:12:00,
2013-01-31 18:22:00,35.0,12.0,-100.00,WSW,250,9.0,21.0,38,0.00,,,-99.99,,2013-01-31 23:22:00,
2013-01-31 18:32:00,35.0,13.0,-100.00,South,180,5.0,23.0,39,0.00,,,-99.99,,2013-01-31 23:32:00,
2013-01-31 18:42:00,35.0,11.0,-100.00,South,190,9.0,26.0,36,0.00,,,-99.99,,2013-01-31 23:42:00,
2013-01-31 18:52:00,34.0,12.0,-100.00,SE,140,4.0,20.0,39,0.00,,,-99.99,,2013-01-31 23:52:00,
2013-01-31 19:02:00,34.0,11.0,-100.00,SW,220,9.0,26.0,38,0.00,,,-99.99,,2013-02-01 00:02:00,
2013-01-31 19:11:00,34.0,13.0,-100.00,SSW,210,6.0,21.0,40,0.00,,,-99.99,,2013-02-01 00:11:00,
2013-01-31 19:22:00,34.0,13.0,-100.00,South,175,9.0,24.0,42,0.00,,,-99.99,,2013-02-01 00:22:00,
2013-01-31 19:32:00,34.0,13.0,-100.00,SSW,210,7.0,21.0,42,0.00,,,-99.99,,2013-02-01 00:32:00,
2013-01-31 19:42:00,34.0,13.0,-100.00,SW,230,6.0,15.0,42,0.00,,,-99.99,,2013-02-01 00:42:00,
2013-01-31 19:51:00,33.0,12.0,-100.00,South,185,7.0,22.0,39,0.00,,,-99.99,,2013-02-01 00:51:00,
2013-01-31 20:01:00,33.0,10.0,-100.00,South,190,11.0,30.0,36,0.00,,,-99.99,,2013-02-01 01:01:00,
2013-01-31 20:11:00,33.0,11.0,-100.00,South,180,4.0,17.0,38,0.00,,,-99.99,,2013-02-01 01:11:00,
2013-01-31 20:21:00,33.0,10.0,-100.00,WSW,245,4.0,21.0,38,0.00,,,-99.99,,2013-02-01 01:21:00,
2013-01-31 20:32:00,33.0,9.0,-100.00,SSE,160,6.0,23.0,36,0.00,,,-99.99,,2013-02-01 01:32:00,
2013-01-31 20:42:00,33.0,8.0,-100.00,SW,215,10.0,26.0,35,0.00,,,-99.99,,2013-02-01 01:42:00,
2013-01-31 20:52:00,32.0,9.0,-100.00,WSW,250,6.0,21.0,36,0.00,,,-99.99,,2013-02-01 01:52:00,
2013-01-31 21:02:00,32.0,9.0,-100.00,SSE,155,6.0,12.0,37,0.00,,,-99.99,,2013-02-01 02:02:00,
2013-01-31 21:11:00,32.0,8.0,-100.00,SSW,200,9.0,17.0,35,0.00,,,-99.99,,2013-02-01 02:11:00,
2013-01-31 21:21:00,32.0,8.0,-100.00,South,170,3.0,20.0,36,0.00,,,-99.99,,2013-02-01 02:21:00,
2013-01-31 21:32:00,32.0,8.0,-100.00,SSW,205,2.0,16.0,37,0.00,,,-99.99,,2013-02-01 02:32:00,
2013-01-31 21:42:00,32.0,8.0,-100.00,WSW,240,6.0,20.0,36,0.00,,,-99.99,,2013-02-01 02:42:00,
2013-01-31 21:52:00,31.0,8.0,-100.00,South,185,3.0,15.0,36,0.00,,,-99.99,,2013-02-01 02:52:00,
2013-01-31 22:02:00,31.0,8.0,-100.00,SSW,200,6.0,15.0,36,0.00,,,-99.99,,2013-02-01 03:02:00,
2013-01-31 22:12:00,31.0,7.0,-100.00,SW,230,6.0,16.0,35,0.00,,,-99.99,,2013-02-01 03:12:00,
2013-01-31 22:21:00,31.0,8.0,-100.00,SW,230,7.0,17.0,37,0.00,,,-99.99,,2013-02-01 03:21:00,
2013-01-31 22:33:00,31.0,8.0,-100.00,SW,220,5.0,22.0,36,0.00,,,-99.99,,2013-02-01 03:33:00,
2013-01-31 22:42:00,31.0,7.0,-100.00,SW,230,7.0,16.0,35,0.00,,,-99.99,,2013-02-01 03:42:00,
2013-01-31 22:51:00,31.0,7.0,-100.00,South,190,6.0,12.0,35,0.00,,,-99.99,,2013-02-01 03:51:00,
2013-01-31 23:02:00,31.0,7.0,-100.00,South,175,6.0,17.0,35,0.00,,,-99.99,,2013-02-01 04:02:00,
2013-01-31 23:11:00,31.0,7.0,-100.00,SSW,205,3.0,13.0,36,0.00,,,-99.99,,2013-02-01 04:11:00,
2013-01-31 23:21:00,30.0,8.0,-100.00,SW,220,2.0,9.0,37,0.00,,,-99.99,,2013-02-01 04:21:00,
2013-01-31 23:32:00,30.0,8.0,-100.00,SW,220,2.0,9.0,37,0.00,,,-99.99,,2013-02-01 04:32:00,
2013-01-31 23:41:00,31.0,7.0,-100.00,SW,215,6.0,21.0,36,0.00,,,-99.99,,2013-02-01 04:41:00,
2013-01-31 23:51:00,30.0,7.0,-100.00,WNW,290,6.0,18.0,35,0.00,,,-99.99,,2013-02-01 04:51:00,